Location: Ward Pound Ridge Reservation
(41.2500°N, 73.6000°W)
Time: 08:38:23
(UTC-04:00)

ISS - Pass Details

Date: 08 October 2017
Orbit: 401 x 408 km, 51.6° (Epoch: 20 October)

Event Time Altitude Azimuth Distance (km) Brightness Sun altitude
Rises 19:49:43 0° 310° (NW) 2,327 1.0 -16.9°
Reaches altitude 10° 19:52:11 10° 328° (NNW) 1,467 -0.5 -17.3°
Maximum altitude 19:54:42 20° 18° (NNE) 1,013 -1.9 -17.8°
Enters shadow 19:54:52 20° 22° (NNE) 1,015 -2.0 -17.8°
